Location: Carrières
(48.9495°N, 2.0407°E)
Time: 09:57:50
(UTC+00:00)

Meteor 1-27 - Pass Details

Date: 28 January 2023
Orbit: 837 x 893 km, 81.3° (Epoch: 23 March)

Event Time Altitude Azimuth Distance (km) Brightness Sun altitude
Rises 19:41:09 0° 346° (NNW) 3,512 7.7 -29.3°
Reaches altitude 10° 19:43:37 10° 344° (NNW) 2,563 6.9 -29.7°
Maximum altitude 19:49:25 69° 263° (W) 943 4.5 -30.6°
Enters shadow 19:49:48 67° 236° (SW) 956 4.5 -30.7°
